Regional Weather Roundup
Issued by NWS Green Bay, WI

Home | Current Version | Previous Version | Graphics & Text | Print | Product List | Glossary Off
Versions: 1 2 3 4 5 6 7 8 9 10 11 12 13 14 15 16 17 18 19 20 21 22 23 24 25 26 27 28 29 30 31 32 33 34 35 36 37 38 39 40 41 42 43 44 45 46 47 48 49 50

000
ASUS43 KGRB 280711
RWRGRB

NORTH-CENTRAL AND NORTHEAST WISCONSIN REGIONAL WEATHER ROUNDUP
NATIONAL WEATHER SERVICE GREEN BAY WI
200 AM CDT THU MAY 28 2015

WIZ005-009-010>012-018-019-280800-
NORTH CENTRAL WISCONSIN

CITY           SKY/WX    TMP DP  RH WIND       PRES   REMARKS
IRONWOOD       CLEAR     52  52 100 CALM      30.05R
MANITOWISH WTR FOG       49  49 100 CALM      30.09R VSB 1
ARBOR VITAE    CLEAR     52  50  95 CALM      30.10R FOG
EAGLE RIVER    CLEAR     50  50 100 CALM      30.10R FOG
LAND O LAKES   CLEAR     46  46 100 CALM      30.11R FOG
RHINELANDER    CLEAR     51  50  96 CALM      30.10R FOG
PHILLIPS       CLEAR     52  52 100 CALM      30.08S FOG
ANTIGO         CLEAR     52  52 100 CALM      30.10S
TOMAHAWK       CLEAR     50  49  97 CALM      30.10R FOG
MERRILL        FOG       51  51 100 CALM      30.10R VSB 1/2
$$

WIZ013-073-280800-
NORTHEAST WISCONSIN

CITY           SKY/WX    TMP DP  RH WIND       PRES   REMARKS
IRON MOUNTAIN  CLEAR     51  49  92 N3        30.08R
MARINETTE      CLEAR     57  54  88 SW7       30.07R
OCONTO           N/A     51  51 100 CALM      30.08S VSB 3/4
$$

WIZ017-030-035>037-045-280800-
CENTRAL WISCONSIN

CITY           SKY/WX    TMP DP  RH WIND       PRES   REMARKS
MEDFORD        CLEAR     54  53  95 S6        30.09R
WAUSAU         CLEAR     58  56  93 S7        30.08R
MOSINEE        CLEAR     54  54 100 S3        30.11S
MARSHFIELD     CLEAR     57  53  86 E3        30.10R
WISC RAPIDS    CLEAR     56  53  90 SW3       30.10S
STEVENS POINT  CLEAR     54  54 100 CALM      30.11R FOG
WAUPACA        FOG       57  56  97 CALM      30.11R VSB 1/2
SHAWANO        FOG       54  53  94 CALM      30.09R VSB<1/4
CLINTONVILLE   CLEAR     54  54 100 S3        30.09R FOG
$$

WIZ038-039-048-051-280800-
FOX VALLEY

CITY           SKY/WX    TMP DP  RH WIND       PRES   REMARKS
NWS GREEN BAY  CLEAR     60  55  83 SW5       30.09R
APPLETON       CLEAR     55  55 100 SW6       30.11R
OSHKOSH        CLEAR     58  55  90 SW5       30.10R
FOND DU LAC    CLEAR     60  56  86 CALM      30.11R
$$

WIZ022-050-052-280800-
EAST CENTRAL WISCONSIN

CITY           SKY/WX    TMP DP  RH WIND       PRES   REMARKS
STURGEON BAY   CLEAR     57  54  88 S3        30.11R
MANITOWOC      PTCLDY    53  51  93 CALM      30.10S
SHEBOYGAN      MOCLDY    60  56  86 W3        30.10S
$$

LMZ563-521-522-541>543-280800-
LAKESHORE

STATION/POSITION TIME  TEMP    WIND        PRES    VSBY  WAVE
                       AIR SEA DIR/SP/G                  HT/PER
                 (UTC) (F)     (DEG/KT/KT) (MB)    (MI)  (FT/S)
SHEBOYGAN LKSHOR 0700   60     200/  5/  5 1019.6R
KEWAUNEE LKSHORE 0600   54     290/  2/  5 1018.0R
ALGOMA MARINA    0608          230/  3/  5   N/A
NORTHPORT PIER   0600   51     160/  7/  9 1018.3R
N MID LAKE BUOY  0650   45 36  200/ 14/ 16 1018.8R         1/ 4
SISTER BAY LKSHO 0603   60        CALM       N/A
CHAMBERS ISLAND  0600   59     190/  4/  6 1017.9R
MENOMINEE LKSHOR 0600   59     180/  4/  5 1018.6R
$$



USA.gov is the U.S. government's official web portal to all federal, state and local government web resources and services.